CES8478 ZBAD-ZSPD

Flight info

Callsign CES8478
Flight time N/A
Altitude 35100
Route ELKUR4K ELKUR W40 YQG/K0846S1100 W142 DALIM/K0846S1070 A593 DPX A470 DALNU W166 ZJ W167 SASAN R343 EKIMU
Aircraft A320/M-SDE3FGHIRWY/LB1

Departure

Time 2026-04-23 04:33
Airport Beijing Daxing International Airport (ZBAD)

Arrival

Time N/A
Airport Shanghai Pudong International Airport (ZSPD)
Time Latitude Longitude Altitude Speed Heading
2026-04-23 04:07 39.51112 116.40344 90 ft 0 kts 57°
2026-04-23 04:11 39.51111 116.40344 90 ft 0 kts 57°
2026-04-23 04:24 39.51105 116.40331 93 ft 3 kts 57°
2026-04-23 04:24 39.51095 116.40309 91 ft 3 kts 57°
2026-04-23 04:24 39.51084 116.40287 93 ft 3 kts 57°
2026-04-23 04:25 39.51073 116.40264 93 ft 3 kts 57°
2026-04-23 04:25 39.51063 116.40242 92 ft 3 kts 57°
2026-04-23 04:25 39.51051 116.40221 93 ft 3 kts 53°
2026-04-23 04:25 39.51039 116.40201 92 ft 3 kts 43°
2026-04-23 04:26 39.51026 116.40187 92 ft 3 kts 21°
2026-04-23 04:26 39.51014 116.40182 93 ft 2 kts 355°
2026-04-23 04:26 39.51011 116.40182 92 ft 3 kts 353°
2026-04-23 04:27 39.51012 116.40182 93 ft 0 kts 353°
2026-04-23 04:28 39.51096 116.40165 93 ft 10 kts 338°
2026-04-23 04:28 39.51123 116.40088 94 ft 10 kts 272°
2026-04-23 04:28 39.51122 116.39995 95 ft 11 kts 285°
2026-04-23 04:28 39.51181 116.39938 96 ft 11 kts 350°
2026-04-23 04:29 39.51261 116.39923 94 ft 14 kts 353°
2026-04-23 04:29 39.51368 116.39906 94 ft 16 kts 353°
2026-04-23 04:29 39.51520 116.39881 96 ft 27 kts 353°
2026-04-23 04:29 39.51708 116.39851 94 ft 27 kts 353°
2026-04-23 04:30 39.51790 116.39787 98 ft 14 kts 278°
2026-04-23 04:30 39.51783 116.39660 103 ft 14 kts 263°
2026-04-23 04:30 39.51771 116.39532 101 ft 15 kts 264°
2026-04-23 04:30 39.51765 116.39373 94 ft 19 kts 264°
2026-04-23 04:31 39.51739 116.39182 94 ft 24 kts 262°
2026-04-23 04:31 39.51718 116.38969 92 ft 24 kts 263°
2026-04-23 04:31 39.51714 116.38927 95 ft 0 kts 263°
2026-04-23 04:32 39.51711 116.38895 96 ft 9 kts 263°
2026-04-23 04:32 39.51703 116.38812 101 ft 9 kts 262°
2026-04-23 04:32 39.51674 116.38745 103 ft 9 kts 201°
2026-04-23 04:32 39.51609 116.38755 102 ft 9 kts 172°
2026-04-23 04:33 39.51458 116.38780 102 ft 41 kts 173°
2026-04-23 04:33 39.50910 116.38864 102 ft 118 kts 173°
2026-04-23 04:33 39.49870 116.39027 115 ft 178 kts 174°
2026-04-23 04:33 39.48634 116.39227 830 ft 164 kts 173°
2026-04-23 04:34 39.47498 116.39444 1710 ft 168 kts 173°
2026-04-23 04:34 39.46298 116.39633 2355 ft 185 kts 174°
2026-04-23 04:34 39.44909 116.39820 2639 ft 216 kts 175°
2026-04-23 04:34 39.43329 116.40040 3107 ft 235 kts 173°
2026-04-23 04:35 39.41676 116.40284 3880 ft 244 kts 173°
2026-04-23 04:35 39.39946 116.40542 4611 ft 254 kts 174°
2026-04-23 04:35 39.38162 116.40814 5381 ft 263 kts 174°
2026-04-23 04:35 39.36368 116.41367 6017 ft 274 kts 153°
2026-04-23 04:36 39.34925 116.43007 6753 ft 283 kts 123°
2026-04-23 04:36 39.34293 116.45395 7609 ft 285 kts 92°
2026-04-23 04:36 39.34466 116.47936 8403 ft 287 kts 80°
2026-04-23 04:36 39.34779 116.50510 9194 ft 292 kts 79°
2026-04-23 04:37 39.35090 116.53109 10107 ft 293 kts 79°
2026-04-23 04:37 39.35400 116.55758 10713 ft 307 kts 80°
2026-04-23 04:37 39.35550 116.58627 10905 ft 336 kts 90°
2026-04-23 04:37 39.35380 116.61767 11133 ft 364 kts 94°
2026-04-23 04:38 39.35108 116.65109 11727 ft 379 kts 95°
2026-04-23 04:38 39.34842 116.68534 12638 ft 387 kts 94°
2026-04-23 04:38 39.34614 116.71982 13635 ft 393 kts 93°
2026-04-23 04:38 39.34402 116.75531 14528 ft 400 kts 92°
2026-04-23 04:39 39.34076 116.79111 15238 ft 406 kts 103°
2026-04-23 04:39 39.32868 116.82452 15934 ft 418 kts 127°
2026-04-23 04:39 39.30792 116.85091 16818 ft 423 kts 146°
2026-04-23 04:39 39.28183 116.86814 17707 ft 422 kts 161°
2026-04-23 04:40 39.25410 116.88160 18412 ft 430 kts 162°
2026-04-23 04:40 39.22582 116.89503 19178 ft 435 kts 162°
2026-04-23 04:40 39.19724 116.90887 20017 ft 439 kts 162°
2026-04-23 04:40 39.16860 116.92312 20820 ft 443 kts 161°
2026-04-23 04:41 39.13969 116.93768 21579 ft 448 kts 161°
2026-04-23 04:41 39.11047 116.95242 22310 ft 453 kts 162°
2026-04-23 04:41 39.08128 116.96712 23041 ft 458 kts 162°
2026-04-23 04:41 39.05148 116.98210 23720 ft 463 kts 162°
2026-04-23 04:42 39.02135 116.99724 24331 ft 466 kts 162°
2026-04-23 04:42 38.99098 117.01250 24958 ft 470 kts 163°
2026-04-23 04:42 38.96048 117.02780 25568 ft 473 kts 163°
2026-04-23 04:42 38.92968 117.04323 26166 ft 476 kts 163°
2026-04-23 04:43 38.89850 117.05707 26636 ft 471 kts 173°
2026-04-23 04:43 38.86623 117.05988 27053 ft 463 kts 192°
2026-04-23 04:43 38.83549 117.04963 27678 ft 451 kts 209°
2026-04-23 04:43 38.80873 117.02969 28350 ft 442 kts 220°
2026-04-23 04:44 38.78535 117.00420 28948 ft 438 kts 229°
2026-04-23 04:44 38.76723 116.97325 29378 ft 433 kts 243°
2026-04-23 04:44 38.75324 116.93887 29683 ft 438 kts 245°
2026-04-23 04:44 38.73947 116.90393 30146 ft 439 kts 245°
2026-04-23 04:45 38.72563 116.86938 30808 ft 433 kts 244°
2026-04-23 04:45 38.71186 116.83582 31475 ft 429 kts 244°
2026-04-23 04:45 38.69785 116.80229 32070 ft 426 kts 244°
2026-04-23 04:45 38.68384 116.76901 32590 ft 424 kts 243°
2026-04-23 04:46 38.66985 116.73592 33162 ft 419 kts 242°
2026-04-23 04:46 38.65252 116.70596 33520 ft 425 kts 227°
2026-04-23 04:46 38.62877 116.68286 33910 ft 433 kts 216°
2026-04-23 04:46 38.60180 116.66525 34326 ft 438 kts 208°
2026-04-23 04:47 38.57211 116.65473 34638 ft 451 kts 194°
2026-04-23 04:47 38.54044 116.65095 34861 ft 458 kts 192°
2026-04-23 04:47 38.50850 116.64829 34981 ft 463 kts 191°
2026-04-23 04:47 38.47622 116.64558 35016 ft 464 kts 192°
2026-04-23 04:48 38.41265 116.63906 35054 ft 457 kts 193°
2026-04-23 04:48 38.34949 116.63172 35052 ft 455 kts 193°
2026-04-23 04:49 38.28538 116.63257 35055 ft 468 kts 181°
2026-04-23 04:49 38.22072 116.64969 35069 ft 481 kts 172°
2026-04-23 04:50 38.15656 116.67466 35072 ft 482 kts 172°
2026-04-23 04:50 38.09215 116.69875 35063 ft 483 kts 172°
2026-04-23 04:51 38.02770 116.72320 35075 ft 484 kts 172°
2026-04-23 04:51 37.96314 116.74796 35069 ft 484 kts 172°
2026-04-23 04:52 37.89862 116.77262 35074 ft 485 kts 172°
2026-04-23 04:52 37.83398 116.79720 35071 ft 485 kts 172°
2026-04-23 04:53 37.76971 116.82159 35076 ft 485 kts 172°
2026-04-23 04:53 37.70503 116.84607 35070 ft 485 kts 172°
2026-04-23 04:54 37.64037 116.87052 35077 ft 485 kts 172°
2026-04-23 04:54 37.57562 116.89495 35074 ft 486 kts 172°
2026-04-23 04:55 37.51085 116.91935 35073 ft 486 kts 173°
2026-04-23 04:55 37.44640 116.94359 35075 ft 486 kts 173°
2026-04-23 04:56 37.38145 116.96798 35085 ft 487 kts 173°
2026-04-23 04:56 37.31647 116.99233 35085 ft 487 kts 173°
2026-04-23 04:57 37.25189 117.01979 35081 ft 493 kts 169°
2026-04-23 04:57 37.18767 117.05011 35078 ft 493 kts 169°
2026-04-23 04:58 37.12340 117.08028 35080 ft 492 kts 169°
2026-04-23 04:58 37.05956 117.11010 35071 ft 492 kts 170°
2026-04-23 04:59 36.99544 117.14000 35075 ft 491 kts 170°
2026-04-23 04:59 36.93151 117.16977 35078 ft 490 kts 170°
2026-04-23 05:00 36.86747 117.19876 35078 ft 484 kts 174°
2026-04-23 05:00 36.83524 117.20849 35085 ft 473 kts 180°
2026-04-23 05:00 36.80288 117.21435 35083 ft 466 kts 185°
2026-04-23 05:01 36.73923 117.21615 35094 ft 455 kts 191°
2026-04-23 05:01 36.67591 117.21505 35081 ft 455 kts 191°
2026-04-23 05:02 36.61247 117.21435 35086 ft 456 kts 191°
2026-04-23 05:02 36.54894 117.21392 35080 ft 456 kts 191°
2026-04-23 05:03 36.48544 117.21349 35095 ft 456 kts 191°
2026-04-23 05:03 36.42140 117.21701 35111 ft 469 kts 182°
2026-04-23 05:04 36.35717 117.23442 35111 ft 482 kts 174°
2026-04-23 05:04 36.29298 117.25895 35104 ft 482 kts 173°
2026-04-23 05:05 36.22890 117.28343 35101 ft 481 kts 173°
2026-04-23 05:05 36.17532 117.30346 35109 ft 480 kts 174°
2026-04-23 05:06 36.11171 117.32702 35107 ft 479 kts 173°
2026-04-23 05:06 36.04794 117.35063 35117 ft 478 kts 173°
2026-04-23 05:07 35.98406 117.37427 35117 ft 479 kts 173°
2026-04-23 05:07 35.92024 117.39814 35114 ft 479 kts 173°
2026-04-23 05:08 35.85638 117.42212 35109 ft 479 kts 173°
2026-04-23 05:08 35.79256 117.44601 35127 ft 479 kts 173°
2026-04-23 05:09 35.72860 117.46988 35106 ft 480 kts 173°
2026-04-23 05:09 35.66507 117.49355 35132 ft 480 kts 173°
2026-04-23 05:10 35.60111 117.51733 35109 ft 480 kts 172°
2026-04-23 05:10 35.53715 117.54108 35131 ft 480 kts 172°
2026-04-23 05:11 35.47311 117.56482 35116 ft 480 kts 172°
2026-04-23 05:11 35.40917 117.58848 35119 ft 480 kts 172°
2026-04-23 05:12 35.34519 117.61211 35120 ft 480 kts 172°
2026-04-23 05:12 35.28124 117.63570 35110 ft 480 kts 172°
2026-04-23 05:13 35.21726 117.65926 35117 ft 480 kts 172°
2026-04-23 05:14 35.12136 117.69451 35130 ft 480 kts 172°
2026-04-23 05:14 35.05728 117.71800 35115 ft 480 kts 172°
2026-04-23 05:15 34.99363 117.74121 35116 ft 481 kts 172°
2026-04-23 05:15 34.92947 117.76455 35117 ft 481 kts 172°
2026-04-23 05:16 34.86526 117.78790 35120 ft 482 kts 172°
2026-04-23 05:16 34.80086 117.81100 35119 ft 482 kts 172°
2026-04-23 05:17 34.73648 117.83404 35129 ft 483 kts 172°
2026-04-23 05:17 34.67196 117.85724 35122 ft 483 kts 172°
2026-04-23 05:18 34.60740 117.88043 35123 ft 483 kts 173°
2026-04-23 05:18 34.54305 117.90348 35115 ft 482 kts 173°
2026-04-23 05:19 34.47884 117.92644 35123 ft 480 kts 173°
2026-04-23 05:19 34.41474 117.94931 35117 ft 479 kts 173°
2026-04-23 05:20 34.35079 117.97210 35122 ft 478 kts 173°
2026-04-23 05:20 34.28695 117.99481 35120 ft 478 kts 173°
2026-04-23 05:21 34.22350 118.01776 35124 ft 479 kts 173°
2026-04-23 05:21 34.15981 118.04122 35122 ft 479 kts 173°
2026-04-23 05:22 34.09597 118.06462 35127 ft 479 kts 173°
2026-04-23 05:22 34.03215 118.08791 35121 ft 479 kts 173°
2026-04-23 05:23 33.96829 118.11123 35127 ft 480 kts 173°
2026-04-23 05:23 33.90435 118.13464 35121 ft 480 kts 173°
2026-04-23 05:24 33.84055 118.15879 35127 ft 485 kts 168°
2026-04-23 05:24 33.77906 118.19508 35119 ft 500 kts 156°
2026-04-23 05:25 33.72124 118.24278 35114 ft 504 kts 153°
2026-04-23 05:25 33.66434 118.29106 35123 ft 503 kts 153°
2026-04-23 05:26 33.60686 118.33914 35124 ft 502 kts 154°
2026-04-23 05:26 33.54943 118.38666 35113 ft 501 kts 154°
2026-04-23 05:27 33.49214 118.43392 35123 ft 500 kts 154°
2026-04-23 05:27 33.43485 118.48112 35117 ft 499 kts 154°
2026-04-23 05:28 33.37768 118.52818 35122 ft 499 kts 154°
2026-04-23 05:28 33.32086 118.57488 35119 ft 498 kts 154°
2026-04-23 05:29 33.26368 118.62182 35125 ft 498 kts 154°
2026-04-23 05:29 33.20644 118.66872 35121 ft 499 kts 154°
2026-04-23 05:30 33.14933 118.71600 35121 ft 500 kts 153°
2026-04-23 05:30 33.09217 118.76356 35121 ft 501 kts 153°
2026-04-23 05:31 33.03498 118.81102 35124 ft 501 kts 153°
2026-04-23 05:31 32.97761 118.85848 35113 ft 502 kts 153°
2026-04-23 05:32 32.92009 118.90600 35121 ft 503 kts 153°
2026-04-23 05:32 32.86251 118.95349 35114 ft 504 kts 153°
2026-04-23 05:33 32.80494 119.00109 35116 ft 505 kts 153°
2026-04-23 05:33 32.74733 119.04896 35117 ft 505 kts 153°
2026-04-23 05:34 32.69000 119.09656 35110 ft 506 kts 153°
2026-04-23 05:34 32.63219 119.14445 35313 ft 506 kts 154°
2026-04-23 05:35 32.57410 119.19242 35173 ft 511 kts 154°
2026-04-23 05:35 32.51560 119.24068 35108 ft 512 kts 154°
2026-04-23 05:36 32.45752 119.28856 35105 ft 511 kts 154°
2026-04-23 05:36 32.39923 119.33653 35105 ft 509 kts 154°
2026-04-23 05:37 32.34101 119.38434 35116 ft 508 kts 154°
2026-04-23 05:37 32.28289 119.43199 35107 ft 506 kts 154°
2026-04-23 05:38 32.22498 119.47939 35095 ft 505 kts 154°
2026-04-23 05:38 32.16717 119.52663 35102 ft 504 kts 154°
2026-04-23 05:39 32.10982 119.57343 35101 ft 504 kts 154°
2026-04-23 05:39 32.05211 119.62047 35095 ft 504 kts 154°
2026-04-23 05:40 31.99447 119.66736 35097 ft 503 kts 154°
2026-04-23 05:40 31.94024 119.72157 35103 ft 519 kts 142°
2026-04-23 05:41 31.89478 119.78870 35101 ft 531 kts 131°
2026-04-23 05:41 31.85411 119.86073 35095 ft 531 kts 130°
2026-04-23 05:42 31.81313 119.93323 35098 ft 531 kts 131°
2026-04-23 05:42 31.77176 120.00497 35104 ft 530 kts 131°
2026-04-23 05:43 31.73019 120.07651 35096 ft 530 kts 131°
2026-04-23 05:43 31.68865 120.14794 35088 ft 529 kts 131°
2026-04-23 05:44 31.64717 120.21926 35077 ft 529 kts 131°
2026-04-23 05:44 31.60763 120.28793 35082 ft 531 kts 128°
2026-04-23 05:45 31.60292 120.29710 35082 ft 533 kts 127°
2026-04-23 05:45 31.57061 120.37621 35076 ft 543 kts 115°
2026-04-23 05:46 31.54607 120.46032 35082 ft 545 kts 114°
2026-04-23 05:46 31.52185 120.54446 35081 ft 544 kts 114°
2026-04-23 05:47 31.49708 120.62832 35081 ft 544 kts 115°
2026-04-23 05:47 31.47216 120.71145 35080 ft 544 kts 115°
2026-04-23 05:48 31.44703 120.79505 35076 ft 544 kts 115°
2026-04-23 05:48 31.42191 120.87856 35069 ft 544 kts 115°
2026-04-23 05:48 31.40937 120.92022 34926 ft 543 kts 115°
2026-04-23 05:49 31.39674 120.96203 34638 ft 545 kts 115°
2026-04-23 05:49 31.38404 121.00400 34420 ft 547 kts 115°
2026-04-23 05:49 31.37136 121.04593 34263 ft 546 kts 115°
2026-04-23 05:50 31.34605 121.12957 33834 ft 545 kts 115°
2026-04-23 05:50 31.33351 121.17092 33297 ft 542 kts 114°
2026-04-23 05:50 31.32097 121.21238 32779 ft 537 kts 114°
2026-04-23 05:50 31.30860 121.25332 32278 ft 532 kts 114°
2026-04-23 05:51 31.29634 121.29398 31780 ft 527 kts 114°
2026-04-23 05:51 31.28831 121.32067 31452 ft 524 kts 114°
2026-04-23 05:51 31.27661 121.35959 30978 ft 519 kts 114°
2026-04-23 05:51 31.26471 121.39926 30507 ft 515 kts 114°
2026-04-23 05:52 31.25292 121.43862 30032 ft 511 kts 114°
2026-04-23 05:52 31.24125 121.47762 29484 ft 507 kts 114°
2026-04-23 05:52 31.22965 121.51642 28995 ft 504 kts 114°
2026-04-23 05:52 31.21644 121.55415 28663 ft 502 kts 122°
2026-04-23 05:53 31.19855 121.58877 28637 ft 493 kts 132°
2026-04-23 05:53 31.15170 121.64429 28608 ft 468 kts 154°
2026-04-23 05:53 31.12322 121.66096 28317 ft 447 kts 171°
2026-04-23 05:54 31.09348 121.66706 27988 ft 423 kts 188°
2026-04-23 05:54 31.06545 121.66300 27479 ft 403 kts 204°
2026-04-23 05:54 31.04044 121.64918 26839 ft 387 kts 222°
2026-04-23 05:54 31.02123 121.62849 26257 ft 377 kts 232°
2026-04-23 05:55 31.00457 121.60498 25655 ft 374 kts 236°
2026-04-23 05:55 30.98890 121.58075 25083 ft 372 kts 237°
2026-04-23 05:55 30.97565 121.55543 24505 ft 364 kts 250°
2026-04-23 05:55 30.97179 121.52666 24269 ft 361 kts 272°
2026-04-23 05:56 30.97871 121.49829 23711 ft 374 kts 294°
2026-04-23 05:56 30.99596 121.47497 23067 ft 391 kts 316°
2026-04-23 05:56 31.02061 121.46019 22213 ft 404 kts 332°
2026-04-23 05:56 31.04634 121.44745 21336 ft 397 kts 323°
2026-04-23 05:57 31.06934 121.43036 20486 ft 392 kts 325°
2026-04-23 05:57 31.09565 121.42091 19826 ft 410 kts 348°
2026-04-23 05:57 31.12431 121.41956 19274 ft 412 kts 352°
2026-04-23 05:57 31.15257 121.41645 18657 ft 398 kts 342°
2026-04-23 05:58 31.17821 121.40729 18031 ft 381 kts 331°
2026-04-23 05:58 31.20172 121.39339 17390 ft 377 kts 324°
2026-04-23 05:58 31.22385 121.37706 16738 ft 376 kts 322°
2026-04-23 05:58 31.24551 121.35993 16096 ft 377 kts 321°
2026-04-23 05:59 31.26719 121.34275 15475 ft 377 kts 322°
2026-04-23 05:59 31.28944 121.32675 14827 ft 375 kts 333°
2026-04-23 05:59 31.31519 121.32059 14204 ft 385 kts 358°
2026-04-23 05:59 31.34169 121.32733 13331 ft 398 kts 22°
2026-04-23 06:00 31.36446 121.34561 12425 ft 408 kts 41°
2026-04-23 06:00 31.38226 121.37077 11550 ft 414 kts 57°
2026-04-23 06:00 31.39438 121.40116 10706 ft 400 kts 72°
2026-04-23 06:00 31.39873 121.43216 9967 ft 375 kts 88°
2026-04-23 06:01 31.39888 121.46190 9014 ft 357 kts 89°
2026-04-23 06:01 31.39892 121.49049 8056 ft 343 kts 89°
2026-04-23 06:01 31.39923 121.51794 7122 ft 332 kts 88°
2026-04-23 06:01 31.39971 121.54459 6262 ft 321 kts 87°
2026-04-23 06:02 31.40027 121.56991 5334 ft 311 kts 85°
2026-04-23 06:02 31.40331 121.59492 4288 ft 303 kts 76°
2026-04-23 06:02 31.40802 121.61822 3515 ft 290 kts 75°
2026-04-23 06:02 31.41249 121.64010 3226 ft 262 kts 76°
2026-04-23 06:03 31.41276 121.66031 2992 ft 241 kts 104°
2026-04-23 06:03 31.40415 121.67598 2983 ft 227 kts 137°
2026-04-23 06:03 31.39094 121.68619 3001 ft 228 kts 146°
2026-04-23 06:03 31.37705 121.69477 2994 ft 220 kts 150°
2026-04-23 06:04 31.36388 121.70214 2973 ft 206 kts 152°
2026-04-23 06:04 31.35079 121.70834 3020 ft 202 kts 156°
2026-04-23 06:04 31.33759 121.71374 3014 ft 200 kts 158°
2026-04-23 06:04 31.32453 121.71879 3001 ft 196 kts 158°
2026-04-23 06:05 31.31164 121.72370 2994 ft 194 kts 158°
2026-04-23 06:05 31.29898 121.72850 2983 ft 188 kts 158°
2026-04-23 06:05 31.28644 121.73327 2813 ft 190 kts 158°
2026-04-23 06:05 31.27401 121.73799 2558 ft 185 kts 158°
2026-04-23 06:06 31.26222 121.74247 2320 ft 171 kts 158°
2026-04-23 06:06 31.25125 121.74666 2057 ft 161 kts 159°
2026-04-23 06:06 31.24075 121.75061 1851 ft 158 kts 160°
2026-04-23 06:06 31.23004 121.75471 1659 ft 168 kts 160°
2026-04-23 06:07 31.21892 121.75894 1405 ft 168 kts 160°
2026-04-23 06:07 31.20798 121.76311 1192 ft 168 kts 160°
2026-04-23 06:07 31.19685 121.76732 955 ft 168 kts 161°
2026-04-23 06:07 31.18570 121.77152 698 ft 170 kts 161°
2026-04-23 06:08 31.17466 121.77584 469 ft 165 kts 161°
2026-04-23 06:08 31.16382 121.77992 269 ft 158 kts 161°
2026-04-23 06:08 31.15360 121.78384 67 ft 155 kts 161°
2026-04-23 06:08 31.14395 121.78752 28 ft 133 kts 159°
2026-04-23 06:09 31.13691 121.79014 27 ft 79 kts 163°